279P/La Sagra (2023)

Japanese version
Home page
Updated on May 29, 2022

---------------------------------------------------------------------

* Profile

* Orbital Elements

Epoch 2022 Jan. 21.0 TT = JDT 2459600.5                                         
T 2023 Apr. 19.57270 TT                                 Rudenko                 
q   2.1487431            (2000.0)            P               Q                  
n   0.14592210     Peri.    5.83293     +0.99033451     +0.13710707             
a   3.5731837      Node   346.23338     -0.13054931     +0.87040548             
e   0.3986474      Incl.    5.05250     -0.04684484     +0.47285933             
P   6.75                                                                        
From 254 observations 2002 July 12-2016 Nov. 26, mean residual 0".6.            

* Magnitudes Graph

        m1 = 15.2 + 5 log d + 10.0 log r

---------------------------------------------------------------------

The orbital elements are published on M.P.E.C. 2022-K19.
The magnitudes graphs are made with Comet for Windows.

---------------------------------------------------------------------

Copyright(C) Seiichi Yoshida (comet@aerith.net). All rights reserved.